Showing default

QIANFAN-61, 62791

Orbit data source: Space-Track

QIANFAN-61, 62791 is a Chinese payload satellite in LEO that was launched on Thu, 23 Jan 2025 UTC via a CHANG ZHENG 6A launch vehicle from the Taiyaun Space Center, China (TSC). Payload-class satellites include a variety of spacecraft equipped with specific instruments for various scientific and technological missions. These include communications satellites like Starlink; space stations such as the ISS; scientific satellites like the Hubble; Earth observation satellites from companies like Planet Labs, Umbra, and HawkEye 360; GPS; miniature CubeSats for education and research; and military/defense satellites.

Loading next visibility...
Identifier
62791, 2025-016G
Orbit
LEO
Country
Flag of CNCN / PRC
Related business
Manufacturer
SECM
Mission
Operational Commercial Communications
Bus & Motor
QIANFAN, Unknown motor
Mass
267 kg wet, ~267 kg dry
Launch date (UTC)
2025-01-23 (2 years ago)
Launch vehicle
CHANG ZHENG 6A
Launch site
Taiyaun Space Center, China (TSC)
Object type
Payload
Rocket body
Debris
Shape & HBR
Box + 1 Pan, 5.0 m
Radar Cross Section
13.200 m², Large (>1 m²)

Expand to show TLE details & history
Last TLE update: 9 hours ago

TLE from 9 hours ago
0 QIANFAN-61
1 62791U 25016G   26257.54917777  .00000028  00000-0  25529-4 0  9995
2 62791  88.9714  74.7350 0012881 265.8371  94.1308 13.51027217 84480
Epoch: 2026-09-14T13:10Z
TLE epoch observation values (Epoch: 2026-09-14T13:10:48.959Z)
Latitude
-0.00002°
Longitude
-116.49688°
Altitude
1,072.138 km
Speed
7.316 km/s
True Right ascension
04h 58m 56s
True Declination
0° 00' 00"
Sunlit
Object was in daylight at epoch
Visualization orbit readout
Latitude
Unknown
Longitude
Unknown
Altitude
Unknown
Speed
Unknown
Apparent Right ascension
Unknown
Apparent Declination
Unknown
Sunlit
N/A
Visualization observer readout
Local Sidereal Time
14:59:10
Azimuth
Unknown
Elevation
Unknown
Doppler factor
Unknown
Orbital elements
Apogee altitude
1,075.121 km
Perigee altitude
1,055.945 km
Semi-major axis
7,443.67 km
Eccentricity
0.00129
Inclination
88.9714°
RAAN
74.735°
Arg. of periapsis
265.8371°
True anomaly
94.278°
Mean anomaly
94.1308°
Eccentric anomaly
94.2044°
Mean motion
3.37958 °/min
Orbital period
106.52 mins
BSTAR
0.000025529
Loading maneuver chart data...
Computing Atmospheric mass density...
Loading historical data...
Loading historical data...
Loading historical data...
Loading historical data...
Loading historical data...
Loading historical data...
Loading historical data...

Documentation

Showing up to 5 results
|